Location: Ferchesar
(52.6477°N, 12.4298°E)
Time: 08:52:54
(UTC+01:00)

BUGSAT 1 - Pass Details

Date: 29 October 2021
Orbit: 558 x 601 km, 98.1° (Epoch: 28 November)

Event Time Altitude Azimuth Distance (km) Brightness Sun altitude
Rises 18:26:53 0° 215° (SW) 2,755 ? -6.8°
Reaches altitude 10° 18:30:05 10° 243° (WSW) 1,858 ? -7.3°
Maximum altitude 18:32:02 13° 272° (W) 1,662 ? -7.6°
Drops below altitude 10° 18:33:58 10° 301° (WNW) 1,859 ? -7.9°
Sets 18:37:11 0° 329° (NNW) 2,759 ? -8.3°
